Time,TemperatureF,DewpointF,PressureIn,WindDirection,WindDirectionDegrees,WindSpeedMPH,WindSpeedGustMPH,Humidity,HourlyPrecipIn,Conditions,Clouds,dailyrainin,SoftwareType,DateUTC
2013-05-20 00:03:00,75.0,69.0,30.06,NW,319,0.0,0.0,81,0.00,,,0.00,,2013-05-20 04:03:00,
2013-05-20 00:13:00,75.0,69.0,30.06,NNE,18,1.0,3.0,81,0.00,,,0.00,,2013-05-20 04:13:00,
2013-05-20 00:23:00,75.0,69.0,30.06,NNE,18,1.0,3.0,81,0.00,,,0.00,,2013-05-20 04:23:00,
2013-05-20 00:33:00,74.0,67.0,30.05,ENE,68,0.0,1.0,79,0.00,,,0.00,,2013-05-20 04:33:00,
2013-05-20 00:42:00,74.0,67.0,30.05,ENE,68,0.0,1.0,79,0.00,,,0.00,,2013-05-20 04:42:00,
2013-05-20 00:53:00,74.0,67.0,30.05,ENE,68,0.0,1.0,80,0.00,,,0.00,,2013-05-20 04:53:00,
2013-05-20 01:02:00,74.0,67.0,30.05,ENE,68,0.0,0.0,80,0.00,,,0.00,,2013-05-20 05:02:00,
2013-05-20 01:12:00,74.0,67.0,30.05,ENE,68,0.0,1.0,80,0.00,,,0.00,,2013-05-20 05:12:00,
2013-05-20 01:22:00,74.0,67.0,30.05,ENE,68,0.0,1.0,80,0.00,,,0.00,,2013-05-20 05:22:00,
2013-05-20 01:32:00,73.0,67.0,30.04,ENE,68,0.0,0.0,81,0.00,,,0.00,,2013-05-20 05:32:00,
2013-05-20 01:42:00,73.0,67.0,30.04,ENE,68,0.0,0.0,81,0.00,,,0.00,,2013-05-20 05:42:00,
2013-05-20 01:52:00,73.0,67.0,30.03,ENE,68,0.0,0.0,82,0.00,,,0.00,,2013-05-20 05:52:00,
2013-05-20 02:01:00,73.0,68.0,30.02,ENE,69,0.0,1.0,83,0.00,,,0.00,,2013-05-20 06:01:00,
2013-05-20 02:11:00,73.0,67.0,30.01,ENE,68,0.0,1.0,82,0.00,,,0.00,,2013-05-20 06:11:00,
2013-05-20 02:21:00,73.0,67.0,30.01,ENE,68,0.0,1.0,82,0.00,,,0.00,,2013-05-20 06:21:00,
2013-05-20 02:32:00,72.0,67.0,30.01,ENE,69,0.0,0.0,84,0.00,,,0.00,,2013-05-20 06:32:00,
2013-05-20 02:42:00,72.0,67.0,30.01,ENE,69,0.0,0.0,84,0.00,,,0.00,,2013-05-20 06:42:00,
2013-05-20 02:52:00,72.0,67.0,29.99,ENE,69,0.0,0.0,85,0.00,,,0.00,,2013-05-20 06:52:00,
2013-05-20 03:02:00,72.0,68.0,29.99,ENE,69,0.0,0.0,86,0.00,,,0.00,,2013-05-20 07:02:00,
2013-05-20 03:12:00,72.0,68.0,29.99,ENE,69,0.0,0.0,86,0.00,,,0.00,,2013-05-20 07:12:00,
2013-05-20 03:21:00,73.0,69.0,30.00,ENE,69,0.0,0.0,86,0.00,,,0.00,,2013-05-20 07:21:00,
2013-05-20 03:32:00,72.0,68.0,30.00,ENE,69,0.0,0.0,87,0.00,,,0.00,,2013-05-20 07:32:00,
2013-05-20 03:42:00,72.0,68.0,30.00,ENE,69,0.0,0.0,87,0.00,,,0.00,,2013-05-20 07:42:00,
2013-05-20 03:52:00,73.0,69.0,30.00,ENE,68,0.0,0.0,86,0.00,,,0.00,,2013-05-20 07:52:00,
2013-05-20 04:01:00,72.0,68.0,30.00,ENE,69,0.0,0.0,86,0.00,,,0.00,,2013-05-20 08:01:00,
2013-05-20 04:11:00,72.0,68.0,30.00,ENE,69,0.0,0.0,86,0.00,,,0.00,,2013-05-20 08:11:00,
2013-05-20 04:21:00,72.0,68.0,30.00,ENE,69,0.0,0.0,88,0.00,,,0.00,,2013-05-20 08:21:00,
2013-05-20 04:32:00,73.0,69.0,30.01,ENE,69,0.0,0.0,88,0.00,,,0.00,,2013-05-20 08:32:00,
2013-05-20 04:42:00,73.0,69.0,30.01,ENE,69,0.0,0.0,88,0.00,,,0.00,,2013-05-20 08:42:00,
2013-05-20 04:52:00,73.0,69.0,30.01,ENE,68,0.0,0.0,88,0.00,,,0.00,,2013-05-20 08:52:00,
2013-05-20 05:02:00,72.0,68.0,30.01,ENE,69,0.0,0.0,88,0.00,,,0.00,,2013-05-20 09:02:00,
2013-05-20 05:12:00,72.0,68.0,30.01,ENE,69,0.0,0.0,88,0.00,,,0.00,,2013-05-20 09:12:00,
2013-05-20 05:21:00,72.0,69.0,30.00,ENE,68,0.0,0.0,89,0.00,,,0.00,,2013-05-20 09:21:00,
2013-05-20 05:32:00,73.0,70.0,30.00,ENE,69,0.0,0.0,89,0.00,,,0.00,,2013-05-20 09:32:00,
2013-05-20 05:43:00,73.0,70.0,30.00,ENE,69,0.0,0.0,89,0.00,,,0.00,,2013-05-20 09:43:00,
2013-05-20 05:53:00,73.0,69.0,30.00,ENE,69,0.0,0.0,88,0.00,,,0.00,,2013-05-20 09:53:00,
2013-05-20 06:03:00,74.0,70.0,29.99,ENE,69,0.0,0.0,87,0.00,,,0.00,,2013-05-20 10:03:00,
2013-05-20 06:12:00,74.0,70.0,29.99,ENE,69,0.0,0.0,87,0.00,,,0.00,,2013-05-20 10:12:00,
2013-05-20 06:22:00,74.0,70.0,30.00,ESE,113,0.0,1.0,87,0.00,,,0.00,,2013-05-20 10:22:00,
2013-05-20 06:33:00,73.0,69.0,30.01,ESE,117,0.0,0.0,86,0.00,,,0.00,,2013-05-20 10:33:00,
2013-05-20 06:42:00,73.0,69.0,30.01,ESE,117,0.0,0.0,86,0.00,,,0.00,,2013-05-20 10:42:00,
2013-05-20 06:52:00,73.0,69.0,30.01,ESE,117,0.0,0.0,86,0.00,,,0.00,,2013-05-20 10:52:00,
2013-05-20 07:02:00,73.0,69.0,30.02,ESE,117,0.0,0.0,87,0.00,,,0.00,,2013-05-20 11:02:00,
2013-05-20 07:12:00,73.0,69.0,30.02,ESE,117,0.0,0.0,87,0.00,,,0.00,,2013-05-20 11:12:00,
2013-05-20 07:21:00,72.0,68.0,30.03,ESE,117,0.0,0.0,88,0.00,,,0.00,,2013-05-20 11:21:00,
2013-05-20 07:32:00,72.0,69.0,30.03,ESE,117,0.0,0.0,89,0.00,,,0.00,,2013-05-20 11:32:00,
2013-05-20 07:42:00,72.0,69.0,30.03,ESE,117,0.0,0.0,89,0.00,,,0.00,,2013-05-20 11:42:00,
2013-05-20 07:52:00,73.0,70.0,30.03,ESE,117,0.0,0.0,89,0.00,,,0.00,,2013-05-20 11:52:00,
2013-05-20 08:01:00,74.0,70.0,30.04,ESE,117,0.0,0.0,88,0.00,,,0.00,,2013-05-20 12:01:00,
2013-05-20 08:12:00,74.0,70.0,30.04,ESE,117,0.0,0.0,88,0.00,,,0.00,,2013-05-20 12:12:00,
2013-05-20 08:21:00,75.0,71.0,30.04,SE,130,0.0,4.0,86,0.00,,,0.00,,2013-05-20 12:21:00,
2013-05-20 08:32:00,77.0,71.0,30.04,South,172,0.0,3.0,83,0.00,,,0.00,,2013-05-20 12:32:00,
2013-05-20 08:41:00,77.0,71.0,30.04,South,172,0.0,3.0,83,0.00,,,0.00,,2013-05-20 12:41:00,
2013-05-20 08:52:00,78.0,72.0,30.04,South,171,0.0,1.0,81,0.00,,,0.00,,2013-05-20 12:52:00,
2013-05-20 09:01:00,78.0,71.0,30.04,South,171,1.0,4.0,80,0.00,,,0.00,,2013-05-20 13:01:00,
2013-05-20 09:11:00,78.0,71.0,30.04,South,171,1.0,4.0,80,0.00,,,0.00,,2013-05-20 13:11:00,
2013-05-20 09:22:00,80.0,72.0,30.04,SSE,163,0.0,1.0,78,0.00,,,0.00,,2013-05-20 13:22:00,
2013-05-20 09:32:00,81.0,73.0,30.06,South,179,0.0,2.0,76,0.00,,,0.00,,2013-05-20 13:32:00,
2013-05-20 09:41:00,81.0,73.0,30.06,South,179,0.0,2.0,76,0.00,,,0.00,,2013-05-20 13:41:00,
2013-05-20 09:52:00,82.0,73.0,30.06,South,173,0.0,1.0,74,0.00,,,0.00,,2013-05-20 13:52:00,
2013-05-20 10:01:00,83.0,73.0,30.06,South,169,0.0,2.0,72,0.00,,,0.00,,2013-05-20 14:01:00,
2013-05-20 10:11:00,83.0,73.0,30.06,South,169,0.0,2.0,72,0.00,,,0.00,,2013-05-20 14:11:00,
2013-05-20 10:22:00,83.0,73.0,30.06,ESE,117,0.0,3.0,73,0.00,,,0.00,,2013-05-20 14:22:00,
2013-05-20 10:32:00,84.0,73.0,30.06,SSE,156,1.0,3.0,70,0.00,,,0.00,,2013-05-20 14:32:00,
2013-05-20 10:42:00,84.0,73.0,30.06,SSE,156,1.0,3.0,70,0.00,,,0.00,,2013-05-20 14:42:00,
2013-05-20 10:52:00,85.0,74.0,30.06,South,186,0.0,4.0,70,0.00,,,0.00,,2013-05-20 14:52:00,
2013-05-20 11:01:00,85.0,73.0,30.05,SE,145,1.0,4.0,68,0.00,,,0.00,,2013-05-20 15:01:00,
2013-05-20 11:11:00,85.0,73.0,30.05,SE,145,1.0,4.0,68,0.00,,,0.00,,2013-05-20 15:11:00,
2013-05-20 11:22:00,86.0,72.0,30.05,ESE,115,0.0,5.0,64,0.00,,,0.00,,2013-05-20 15:22:00,
2013-05-20 11:33:00,86.0,72.0,30.05,SE,130,1.0,5.0,64,0.00,,,0.00,,2013-05-20 15:33:00,
2013-05-20 11:42:00,86.0,72.0,30.05,SE,130,1.0,5.0,64,0.00,,,0.00,,2013-05-20 15:42:00,
2013-05-20 11:53:00,87.0,73.0,30.05,SSE,153,0.0,4.0,64,0.00,,,0.00,,2013-05-20 15:53:00,
2013-05-20 12:03:00,89.0,73.0,30.05,SSE,165,0.0,2.0,60,0.00,,,0.00,,2013-05-20 16:03:00,
2013-05-20 12:13:00,89.0,73.0,30.05,SSE,165,0.0,2.0,60,0.00,,,0.00,,2013-05-20 16:13:00,
2013-05-20 12:23:00,89.0,73.0,30.05,NE,36,0.0,5.0,59,0.00,,,0.00,,2013-05-20 16:23:00,
2013-05-20 12:33:00,91.0,73.0,30.04,ESE,109,0.0,3.0,56,0.00,,,0.00,,2013-05-20 16:33:00,
2013-05-20 12:42:00,91.0,73.0,30.04,ESE,109,0.0,3.0,56,0.00,,,0.00,,2013-05-20 16:42:00,
2013-05-20 12:53:00,90.0,69.0,30.04,SE,142,2.0,3.0,51,0.00,,,0.00,,2013-05-20 16:53:00,
2013-05-20 13:02:00,91.0,71.0,30.04,SE,140,1.0,4.0,53,0.00,,,0.00,,2013-05-20 17:02:00,
2013-05-20 13:12:00,91.0,71.0,30.04,SE,140,1.0,4.0,53,0.00,,,0.00,,2013-05-20 17:12:00,
2013-05-20 13:22:00,93.0,70.0,30.03,South,185,0.0,4.0,48,0.00,,,0.00,,2013-05-20 17:22:00,
2013-05-20 13:33:00,93.0,69.0,30.03,SE,144,1.0,5.0,46,0.00,,,0.00,,2013-05-20 17:33:00,
2013-05-20 13:45:00,93.0,69.0,30.03,SE,144,1.0,5.0,46,0.00,,,0.00,,2013-05-20 17:45:00,
2013-05-20 13:53:00,94.0,69.0,30.02,SE,142,2.0,4.0,45,0.00,,,0.00,,2013-05-20 17:53:00,
2013-05-20 14:02:00,93.0,68.0,30.01,ESE,112,0.0,4.0,44,0.00,,,0.00,,2013-05-20 18:02:00,
2013-05-20 14:12:00,91.0,71.0,30.01,South,178,0.0,5.0,53,0.00,,,0.00,,2013-05-20 18:12:00,
2013-05-20 14:23:00,91.0,71.0,30.01,South,178,0.0,5.0,53,0.00,,,0.00,,2013-05-20 18:23:00,
2013-05-20 14:32:00,88.0,75.0,30.01,West,269,5.0,7.0,65,0.00,,,0.00,,2013-05-20 18:32:00,
2013-05-20 14:42:00,88.0,75.0,30.01,West,269,5.0,7.0,65,0.00,,,0.00,,2013-05-20 18:42:00,
2013-05-20 14:55:00,88.0,75.0,30.01,NW,322,5.0,11.0,66,0.00,,,0.00,,2013-05-20 18:55:00,
2013-05-20 15:04:00,88.0,75.0,30.00,West,261,1.0,5.0,66,0.00,,,0.00,,2013-05-20 19:04:00,
2013-05-20 15:11:00,87.0,76.0,29.99,NW,311,4.0,13.0,69,0.00,,,0.00,,2013-05-20 19:11:00,
2013-05-20 15:21:00,87.0,76.0,29.99,NW,311,4.0,13.0,69,0.00,,,0.00,,2013-05-20 19:21:00,
2013-05-20 15:32:00,85.0,74.0,29.99,NW,311,3.0,13.0,69,0.00,,,0.00,,2013-05-20 19:32:00,
2013-05-20 15:42:00,86.0,75.0,29.99,NNW,331,7.0,11.0,69,0.00,,,0.00,,2013-05-20 19:42:00,
2013-05-20 15:52:00,86.0,75.0,29.99,NNW,331,7.0,11.0,69,0.00,,,0.00,,2013-05-20 19:52:00,
2013-05-20 16:01:00,85.0,74.0,29.99,West,269,6.0,11.0,69,0.00,,,0.00,,2013-05-20 20:01:00,
2013-05-20 16:12:00,84.0,74.0,29.98,NW,311,4.0,13.0,71,0.00,,,0.00,,2013-05-20 20:12:00,
2013-05-20 16:21:00,84.0,74.0,29.98,NW,311,4.0,13.0,71,0.00,,,0.00,,2013-05-20 20:21:00,
2013-05-20 16:32:00,86.0,74.0,29.97,WNW,290,3.0,14.0,67,0.00,,,0.00,,2013-05-20 20:32:00,
2013-05-20 16:42:00,88.0,73.0,29.98,NW,325,3.0,11.0,62,0.00,,,0.00,,2013-05-20 20:42:00,
2013-05-20 16:52:00,88.0,73.0,29.98,NW,325,3.0,11.0,62,0.00,,,0.00,,2013-05-20 20:52:00,
2013-05-20 17:01:00,87.0,73.0,30.00,East,91,3.0,10.0,63,0.00,,,0.00,,2013-05-20 21:01:00,
2013-05-20 17:11:00,84.0,68.0,30.00,ESE,113,6.0,9.0,58,0.00,,,0.00,,2013-05-20 21:11:00,
2013-05-20 17:21:00,84.0,68.0,30.00,ESE,113,6.0,9.0,58,0.00,,,0.00,,2013-05-20 21:21:00,
2013-05-20 17:33:00,86.0,69.0,29.98,ENE,78,1.0,5.0,57,0.00,,,0.00,,2013-05-20 21:33:00,
2013-05-20 17:43:00,86.0,68.0,29.98,ESE,107,1.0,7.0,55,0.00,,,0.00,,2013-05-20 21:43:00,
2013-05-20 17:53:00,86.0,68.0,29.98,ESE,107,1.0,7.0,55,0.00,,,0.00,,2013-05-20 21:53:00,
2013-05-20 18:02:00,86.0,67.0,29.98,ENE,76,0.0,4.0,53,0.00,,,0.00,,2013-05-20 22:02:00,
2013-05-20 18:12:00,86.0,66.0,29.98,ESE,119,1.0,4.0,51,0.00,,,0.00,,2013-05-20 22:12:00,
2013-05-20 18:23:00,86.0,66.0,29.98,ESE,119,1.0,4.0,51,0.00,,,0.00,,2013-05-20 22:23:00,
2013-05-20 18:33:00,84.0,65.0,29.98,East,86,0.0,1.0,53,0.00,,,0.00,,2013-05-20 22:33:00,
2013-05-20 18:42:00,84.0,65.0,29.98,East,86,0.0,1.0,53,0.00,,,0.00,,2013-05-20 22:42:00,
2013-05-20 18:53:00,84.0,66.0,29.96,East,86,0.0,1.0,55,0.00,,,0.00,,2013-05-20 22:53:00,
2013-05-20 19:03:00,83.0,66.0,29.96,East,86,0.0,0.0,56,0.00,,,0.00,,2013-05-20 23:03:00,
2013-05-20 19:12:00,83.0,66.0,29.96,East,86,0.0,0.0,56,0.00,,,0.00,,2013-05-20 23:12:00,
2013-05-20 19:22:00,83.0,66.0,29.98,ESE,115,0.0,1.0,57,0.00,,,0.00,,2013-05-20 23:22:00,
2013-05-20 19:32:00,81.0,67.0,30.00,SSE,153,1.0,5.0,63,0.00,,,0.00,,2013-05-20 23:32:00,
2013-05-20 19:42:00,81.0,67.0,30.00,SSE,153,1.0,5.0,63,0.00,,,0.00,,2013-05-20 23:42:00,
2013-05-20 19:53:00,81.0,68.0,30.01,SSW,192,1.0,4.0,64,0.00,,,0.00,,2013-05-20 23:53:00,
2013-05-20 20:01:00,81.0,67.0,30.02,East,90,1.0,6.0,63,0.00,,,0.00,,2013-05-21 00:01:00,
2013-05-20 20:11:00,81.0,67.0,30.02,East,90,1.0,6.0,63,0.00,,,0.00,,2013-05-21 00:11:00,
2013-05-20 20:21:00,81.0,69.0,30.03,ESE,114,0.0,4.0,67,0.00,,,0.00,,2013-05-21 00:21:00,
2013-05-20 20:32:00,77.0,70.0,30.03,East,87,0.0,1.0,79,0.00,,,0.00,,2013-05-21 00:32:00,
2013-05-20 20:42:00,77.0,70.0,30.03,ENE,60,2.0,4.0,80,0.00,,,0.00,,2013-05-21 00:42:00,
2013-05-20 20:52:00,77.0,70.0,30.03,ENE,60,2.0,4.0,80,0.00,,,0.00,,2013-05-21 00:52:00,
2013-05-20 21:01:00,77.0,70.0,30.03,ENE,69,0.0,4.0,79,0.00,,,0.00,,2013-05-21 01:01:00,
2013-05-20 21:11:00,77.0,70.0,30.03,ENE,69,0.0,4.0,79,0.00,,,0.00,,2013-05-21 01:11:00,
2013-05-20 21:22:00,77.0,71.0,30.03,ESE,123,1.0,6.0,81,0.00,,,0.00,,2013-05-21 01:22:00,
2013-05-20 21:32:00,76.0,70.0,30.03,SE,142,1.0,5.0,82,0.00,,,0.00,,2013-05-21 01:32:00,
2013-05-20 21:42:00,75.0,70.0,30.03,ENE,61,2.0,4.0,84,0.00,,,0.00,,2013-05-21 01:42:00,
2013-05-20 21:53:00,75.0,70.0,30.03,ENE,61,2.0,4.0,84,0.00,,,0.00,,2013-05-21 01:53:00,
2013-05-20 22:02:00,75.0,70.0,30.03,SE,133,0.0,1.0,85,0.00,,,0.00,,2013-05-21 02:02:00,
2013-05-20 22:11:00,74.0,69.0,30.03,South,181,0.0,0.0,85,0.00,,,0.00,,2013-05-21 02:11:00,
2013-05-20 22:21:00,74.0,69.0,30.03,South,181,0.0,0.0,85,0.00,,,0.00,,2013-05-21 02:21:00,
2013-05-20 22:32:00,74.0,70.0,30.03,South,181,0.0,1.0,86,0.00,,,0.00,,2013-05-21 02:32:00,
2013-05-20 22:42:00,74.0,70.0,30.03,ESE,109,0.0,1.0,87,0.00,,,0.00,,2013-05-21 02:42:00,
2013-05-20 22:52:00,74.0,70.0,30.03,ESE,109,0.0,1.0,87,0.00,,,0.00,,2013-05-21 02:52:00,
2013-05-20 23:02:00,74.0,70.0,30.03,ENE,66,0.0,3.0,87,0.00,,,0.00,,2013-05-21 03:02:00,
2013-05-20 23:11:00,74.0,70.0,30.03,East,91,0.0,1.0,87,0.00,,,0.00,,2013-05-21 03:11:00,
2013-05-20 23:21:00,74.0,70.0,30.03,East,91,0.0,1.0,87,0.00,,,0.00,,2013-05-21 03:21:00,
2013-05-20 23:33:00,73.0,69.0,30.03,East,91,0.0,0.0,87,0.00,,,0.00,,2013-05-21 03:33:00,
2013-05-20 23:43:00,73.0,69.0,30.02,East,91,0.0,0.0,88,0.00,,,0.00,,2013-05-21 03:43:00,
2013-05-20 23:53:00,73.0,69.0,30.02,East,91,0.0,0.0,88,0.00,,,0.00,,2013-05-21 03:53:00,